Location: Unspecified
(50.1735°N, 0.0000°E)
Time: 06:25:50
(UTC+00:00)

Injun/Solrad 3 - Visible Passes

Search period start: 04 April 2026 00:00
Search period end: 14 April 2026 00:00
Orbit: 870 x 986 km, 66.8° (Epoch: 29 March)

Date Brightness Start Highest point End Pass type
(mag) Time Alt. Az. Time Alt. Az. Time Alt. Az.
4 Apr 7.9 01:42:00 78° NNE 01:42:00 78° NNE 01:47:46 10° NE visible
4 Apr 9.3 03:25:37 17° WNW 03:28:58 28° NNW 03:34:12 10° NNE visible
5 Apr 9.5 00:08:56 23° ENE 00:08:56 23° ENE 00:11:47 10° NE visible
5 Apr 8.0 01:52:33 63° NW 01:52:42 63° NW 01:58:49 10° NNE visible
5 Apr 9.6 03:36:09 12° WNW 03:40:26 23° NNW 03:45:18 10° NNE visible
6 Apr 9.1 00:19:27 33° ENE 00:19:27 33° ENE 00:23:07 10° NE visible
6 Apr 8.4 02:03:03 44° WNW 02:03:53 47° NW 02:09:51 10° NNE visible
6 Apr 9.8 03:47:32 10° WNW 03:51:57 20° NNW 03:56:27 10° NNE visible
7 Apr 8.6 00:29:56 46° ENE 00:29:56 46° ENE 00:34:20 10° NE visible
7 Apr 8.9 02:13:32 31° WNW 02:15:10 37° NW 02:20:52 10° NNE visible
7 Apr 10.0 03:59:24 10° NW 04:03:31 18° NNW 04:07:44 10° NNE visible
7 Apr 10.1 22:56:46 13° ENE 22:56:46 13° ENE 22:57:37 10° ENE visible
8 Apr 8.2 00:40:22 62° NE 00:40:22 62° NE 00:45:27 10° NE visible
8 Apr 9.3 02:23:58 22° WNW 02:26:31 29° NNW 02:31:53 10° NNE visible
8 Apr 10.1 04:11:11 10° NW 04:15:08 17° N 04:19:09 10° NE visible
8 Apr 9.7 23:07:10 19° ENE 23:07:10 19° ENE 23:09:20 10° NE visible
9 Apr 8.1 00:50:47 67° NNW 00:50:47 67° NNW 00:56:31 10° NE visible
9 Apr 9.6 02:34:22 15° WNW 02:37:57 24° NNW 02:42:58 10° NNE visible
9 Apr 10.1 04:22:50 10° NW 04:26:45 17° N 04:30:45 10° NE visible
9 Apr 9.2 23:17:33 27° ENE 23:17:33 27° ENE 23:20:44 10° NE visible
10 Apr 8.3 01:01:08 51° WNW 01:01:29 52° NW 01:07:32 10° NNE visible
10 Apr 9.9 02:44:55 10° WNW 02:49:27 21° NNW 02:54:06 10° NNE visible
10 Apr 10.2 04:34:19 10° NNW 04:38:23 18° N 04:42:31 10° NE visible
10 Apr 8.7 23:27:52 40° ENE 23:27:52 40° ENE 23:31:58 10° NE visible
11 Apr 8.8 01:11:27 36° WNW 01:12:44 40° NW 01:18:33 10° NNE visible
11 Apr 10.1 02:56:47 10° WNW 03:01:01 19° NNW 03:05:20 10° NNE visible
11 Apr 10.0 21:54:32 11° ENE 21:54:32 11° ENE 21:54:58 10° ENE visible
11 Apr 8.2 23:38:07 59° NE 23:38:07 59° NE 23:43:07 10° NE visible
12 Apr 9.3 01:21:43 24° WNW 01:24:04 32° NNW 01:29:35 10° NNE visible
12 Apr 10.2 03:08:36 10° NW 03:12:37 17° N 03:16:42 10° NE visible
12 Apr 9.6 22:04:44 18° ENE 22:04:44 18° ENE 22:06:50 10° ENE visible
12 Apr 7.9 23:48:19 74° NNW 23:48:19 74° NNW 23:54:12 10° NE visible
13 Apr 9.6 01:31:54 16° WNW 01:35:30 26° NNW 01:40:38 10° NNE visible
13 Apr 10.3 03:20:18 10° NW 03:24:14 17° N 03:28:14 10° NE visible
13 Apr 9.0 22:14:52 28° ENE 22:14:52 28° ENE 22:18:19 10° NE visible
